This is the latest recevied weather packets stored in our database for station/object KK4WXG. If no packets are shown the sender has not sent any weather packets the latest 10 day(s).
| Time | Temp. | Humidity | Pressure | Rain* | Wind** | Luminosity | Snow |
|---|---|---|---|---|---|---|---|
| 1777881863 | 5.56° C | 85% | 1014.6 hPa | 0 mm | - | 0 W/m² | - |
| 1777881559 | 5.56° C | 83% | 1014.5 hPa | 0 mm | - | 0 W/m² | - |
| 1777881256 | 5.56° C | 85% | 1014.4 hPa | 0 mm | - | 0 W/m² | - |
| 1777880954 | 5° C | 85% | 1014.3 hPa | 0 mm | - | 0 W/m² | - |
| 1777880652 | 5° C | 86% | 1014.5 hPa | 0 mm | - | 0 W/m² | - |
| 1777880350 | 5° C | 86% | 1014.5 hPa | 0 mm | - | 0 W/m² | - |
| 1777880047 | 5.56° C | 85% | 1014.3 hPa | 0 mm | - | 0 W/m² | - |
| 1777879746 | 5.56° C | 83% | 1014.6 hPa | 0 mm | - | 0 W/m² | - |
| 1777879442 | 5.56° C | 80% | 1014.4 hPa | 0 mm | - | 0 W/m² | - |
| 1777879140 | 5.56° C | 79% | 1014.4 hPa | 0 mm | - | 0 W/m² | - |
| 1777878836 | 5° C | 78% | 1014.5 hPa | 0 mm | - | 0 W/m² | - |
| 1777878533 | 5° C | 79% | 1014.5 hPa | 0 mm | - | 0 W/m² | - |
| 1777878230 | 5° C | 76% | 1014.6 hPa | 0 mm | - | 0 W/m² | - |
| 1777877926 | 5° C | 78% | 1014.5 hPa | 0 mm | - | 0 W/m² | - |
| 1777877623 | 5° C | 78% | 1014.5 hPa | 0 mm | - | 0 W/m² | - |
| 1777877319 | 5° C | 80% | 1014.6 hPa | 0 mm | - | 0 W/m² | - |
| 1777877017 | 5.56° C | 73% | 1014.6 hPa | 0 mm | - | 0 W/m² | - |
| 1777876715 | 5.56° C | 70% | 1014.4 hPa | 0 mm | - | 0 W/m² | - |
| 1777876412 | 5.56° C | 73% | 1014.8 hPa | 0 mm | - | 0 W/m² | - |
| 1777876108 | 5.56° C | 72% | 1014.8 hPa | 0 mm | - | 0 W/m² | - |
| 1777875804 | 5.56° C | 70% | 1014.6 hPa | 0 mm | - | 0 W/m² | - |
| 1777875500 | 5.56° C | 72% | 1014.7 hPa | 0 mm | - | 0 W/m² | - |
| 1777875197 | 5.56° C | 71% | 1014.6 hPa | 0 mm | - | 0 W/m² | - |
| 1777874894 | 5.56° C | 68% | 1014.6 hPa | 0 mm | - | 0 W/m² | - |
| 1777874590 | 5.56° C | 69% | 1014.7 hPa | 0 mm | - | 0 W/m² | - |
* Rain latest hour (hover to see other rain measurements)
** Current wind speed in m/s (hover to see current wind gust speed)